GFSFLT1_sfc_30mbdewp_114.txt.gz
Dewpoint
26 27 29 39 42 46 54 59 61 63 63 63 63 62 62 62 63 62 63 62 62 62 61 61 61 60 59 58 57 55 53 53
26 26 34 48 49 51 55 58 61 62 61 61 61 61 61 61 61 62 61 62 61 61 61 61 61 59 58 58 57 54 54 54
22 25 38 50 51 54 55 57 60 61 61 61 60 60 60 60 61 61 61 61 61 61 61 61 60 59 58 57 56 54 54 54
26 29 34 46 52 55 55 57 59 61 61 60 60 59 59 59 60 61 61 61 61 60 61 60 59 58 57 56 56 54 53 54
36 34 33 41 52 56 57 57 58 60 60 59 57 56 55 57 58 59 61 60 61 60 60 59 58 58 57 55 55 54 53 52
43 41 37 38 52 56 58 58 59 60 60 58 56 54 55 56 57 58 59 60 61 60 60 59 58 57 56 55 55 54 54 52
45 46 43 44 54 56 57 58 58 58 58 57 56 55 56 56 56 58 58 60 60 59 59 59 58 57 56 55 55 55 54 53
46 46 47 48 54 54 57 57 57 57 58 57 56 56 56 55 55 55 57 58 56 56 57 57 57 56 55 55 55 55 55 54
48 49 51 52 53 53 56 56 55 56 57 56 57 56 55 55 55 55 57 57 56 55 55 55 56 56 55 54 54 55 55 54
50 51 52 53 53 53 55 55 55 56 56 56 56 56 55 55 56 57 57 57 54 53 54 54 55 54 55 55 55 56 56 55
51 52 52 52 52 53 54 55 55 55 55 55 55 54 55 56 58 57 57 56 55 53 54 55 54 54 54 55 55 55 55 55
49 51 53 53 53 53 54 54 55 55 54 55 54 54 55 57 57 57 57 56 55 54 54 55 54 53 53 53 53 53 53 53
47 48 49 49 53 53 53 54 54 54 55 54 54 54 55 56 57 57 57 56 55 54 55 54 54 53 52 52 52 51 52 52
42 43 44 46 47 53 53 54 54 54 54 53 53 54 54 55 56 57 57 57 56 54 54 53 53 54 54 53 52 52 51 52
43 44 44 44 45 45 47 53 54 54 54 54 54 54 54 54 55 56 56 56 56 56 54 53 53 52 53 53 54 54 54 53
43 43 43 43 43 44 44 46 49 54 54 54 54 54 54 54 55 55 56 56 56 56 56 55 54 54 53 52 52 52 53 53
42 42 41 41 42 42 43 44 46 49 52 54 54 54 53 54 55 55 55 55 55 55 55 55 55 55 54 53 53 52 53 53
40 39 38 38 40 41 43 43 44 46 47 53 55 53 53 53 54 54 54 54 55 55 55 55 55 54 53 53 53 54 53 50
38 37 36 36 37 40 41 41 41 41 41 43 45 50 54 54 54 53 53 54 54 54 54 54 54 54 51 52 52 50 47 43

GFSFLT1_sfc_30mbdewp_117.txt.gz
Dewpoint
26 27 27 27 30 33 39 50 58 63 64 63 62 62 63 63 63 63 63 63 63 62 62 62 63 62 61 60 59 59 56 53
27 28 28 28 32 42 45 49 58 62 62 63 62 61 62 62 62 62 62 63 62 62 62 61 62 61 60 60 59 57 55 53
27 27 28 31 34 46 48 51 56 61 62 62 62 61 61 61 60 61 62 62 62 62 62 61 62 61 60 59 59 56 55 55
21 22 25 29 41 47 50 52 55 60 61 62 60 60 61 60 60 60 61 61 62 62 62 61 61 61 59 59 59 55 54 53
17 21 26 30 38 48 51 52 54 62 62 60 59 58 58 59 58 60 60 60 61 61 61 61 61 60 60 59 59 57 55 53
32 32 32 32 35 48 53 53 54 61 61 59 59 57 57 56 56 57 59 60 61 61 61 60 60 60 60 58 58 57 56 54
38 39 44 39 49 53 57 55 55 59 60 59 59 57 55 54 55 56 58 59 60 61 61 60 59 59 59 58 58 58 56 55
41 42 44 42 49 55 56 57 56 59 60 59 58 57 55 55 55 55 57 58 60 60 61 60 59 58 58 58 57 57 57 55
44 47 48 49 52 54 55 56 58 58 59 59 57 57 56 55 55 54 55 57 58 59 60 59 59 58 58 57 57 57 57 56
47 50 51 52 52 53 54 56 57 57 58 59 57 56 55 54 54 55 56 57 58 58 57 57 58 57 57 57 57 57 57 57
49 50 52 52 52 53 54 56 56 57 58 57 56 56 55 55 56 57 57 58 57 55 54 55 55 56 56 56 56 57 57 57
48 50 51 52 53 53 54 55 56 56 57 56 55 54 55 55 56 57 57 57 57 55 54 54 54 54 55 55 55 56 56 56
46 48 49 49 51 53 53 54 56 56 55 55 55 54 54 55 56 57 58 57 56 54 54 54 54 54 54 54 55 56 56 56
43 44 45 47 47 47 48 54 55 55 55 54 54 54 54 55 56 57 58 56 55 54 55 54 54 54 54 54 55 55 56 56
43 43 43 44 45 45 46 47 49 55 55 54 53 54 54 54 56 56 57 56 55 54 54 54 54 53 54 54 54 54 54 53
41 42 43 42 43 44 45 46 46 48 51 53 54 54 55 55 55 55 56 57 56 54 54 53 53 54 54 53 53 52 52 53
40 39 40 42 42 42 44 44 45 45 45 49 53 53 54 54 54 56 56 56 56 56 54 53 53 52 52 52 54 53 53 53
38 37 37 37 41 42 42 42 43 42 42 42 45 53 54 54 54 54 54 55 55 56 56 55 54 53 52 51 52 52 52 52
37 36 35 35 37 39 41 40 40 40 39 39 40 42 46 52 54 54 53 55 55 55 55 55 55 55 52 51 51 53 53 51

GFSFLT1_sfc_30mbdewp_120.txt.gz
Dewpoint
27 28 26 26 29 33 50 56 62 65 66 66 66 65 64 65 65 65 65 65 65 64 64 63 63 63 62 60 60 60 59 58
28 29 30 31 33 41 43 56 60 64 64 64 63 63 63 64 64 64 63 64 64 64 63 62 62 62 61 60 60 59 58 57
29 30 33 35 36 41 46 46 59 62 64 64 63 63 63 62 63 63 63 63 63 63 63 62 62 62 61 60 59 58 57 57
27 29 32 37 38 46 48 49 52 60 63 64 63 62 62 62 62 62 62 62 63 62 62 62 62 62 60 60 59 58 55 56
26 28 29 33 40 48 51 50 52 59 63 62 62 61 60 60 61 60 62 61 61 62 62 62 62 61 60 60 60 58 56 54
18 20 22 29 36 49 50 52 53 61 62 62 61 60 60 60 60 60 60 61 61 61 62 61 61 61 61 60 60 58 57 54
32 33 35 38 51 53 55 54 54 63 62 62 61 60 60 59 59 59 60 60 61 61 61 60 60 60 60 60 60 59 58 56
38 38 42 43 52 56 57 57 55 62 62 62 61 60 60 58 57 58 59 60 60 61 61 60 59 60 60 60 59 59 59 57
44 47 48 49 54 57 56 56 57 60 61 61 61 59 60 57 57 57 58 59 60 61 61 61 60 60 59 59 59 59 59 58
48 50 52 53 53 54 55 55 57 59 59 60 60 59 58 57 56 56 57 58 60 60 60 60 60 59 59 59 58 58 59 58
50 51 52 52 52 53 54 55 58 58 58 59 60 58 58 56 56 56 57 59 58 58 58 58 58 59 59 58 57 58 58 58
48 49 50 52 53 53 54 55 56 57 57 58 59 57 57 56 56 57 58 58 58 56 54 56 56 56 57 57 57 57 57 57
47 48 49 49 49 49 50 54 55 57 57 57 58 58 56 55 56 58 58 58 56 56 55 54 55 55 55 55 56 56 57 57
44 44 45 46 46 46 47 49 50 54 56 56 56 55 54 55 56 58 57 57 56 55 54 54 54 54 54 55 55 56 56 57
43 43 43 44 45 45 46 46 47 49 51 56 56 54 55 55 57 57 57 57 55 55 54 54 54 54 54 55 55 56 56 57
42 43 42 43 43 44 44 45 45 46 47 49 53 55 55 54 55 57 57 57 55 55 55 54 54 54 54 54 55 55 56 56
39 39 40 42 43 42 42 43 43 43 43 43 44 47 54 55 56 56 57 57 55 54 54 54 54 54 53 53 54 54 54 54
37 37 36 37 41 42 41 41 41 41 41 41 41 42 45 49 55 56 56 56 56 55 54 54 53 53 52 52 53 53 53 52
35 35 34 35 36 38 39 39 39 38 39 39 39 40 40 43 47 54 55 56 56 56 55 54 54 53 51 52 52 52 52 51

GFSFLT1_sfc_30mbdewp_123.txt.gz
Dewpoint
25 24 23 21 24 40 61 63 65 67 67 66 65 65 65 66 65 65 66 65 65 64 63 62 63 63 61 60 59 59 59 59
26 26 26 25 25 36 60 62 64 67 66 65 65 64 64 64 65 65 65 66 65 64 63 62 63 62 61 60 59 58 59 59
27 30 30 30 31 39 53 60 64 65 66 66 65 64 63 64 65 65 64 65 64 64 63 62 63 62 61 60 59 58 58 58
18 27 33 36 35 44 52 58 63 64 65 65 63 63 63 62 63 63 63 63 64 63 63 62 62 62 61 60 59 58 56 57
12 23 29 31 36 46 48 55 61 63 64 64 62 62 61 61 61 62 62 62 64 63 62 62 62 62 61 60 60 58 57 56
10 16 27 28 34 47 48 49 58 61 64 63 62 61 61 61 61 61 61 61 61 62 62 62 62 61 61 60 60 59 58 56
13 26 33 45 45 51 51 50 55 62 63 62 62 61 60 60 60 59 60 61 61 60 62 62 62 61 61 60 60 59 58 56
42 48 50 56 56 56 56 57 61 62 62 61 61 60 60 59 59 59 59 60 61 60 60 60 61 61 61 60 59 59 58 56
51 52 53 54 56 56 55 55 56 61 61 61 61 61 61 60 60 60 59 60 60 61 60 60 59 60 60 60 60 60 59 58
51 52 52 52 53 54 54 54 56 58 60 62 61 61 61 60 59 59 60 60 60 61 61 60 59 59 59 59 59 59 59 58
50 51 51 52 53 54 54 55 57 58 58 60 60 60 59 58 58 57 58 59 60 60 60 60 60 59 59 59 59 59 59 59
50 50 50 50 51 51 53 54 56 57 57 58 59 59 58 57 56 57 58 59 59 58 58 58 58 58 59 58 58 58 58 58
48 47 47 47 47 48 49 50 52 54 57 57 58 59 58 57 56 58 58 58 58 56 56 55 55 56 57 57 57 57 57 57
45 45 45 45 46 46 46 47 48 51 54 57 57 57 57 56 56 57 58 57 56 56 55 55 54 55 55 55 56 56 57 57
44 44 44 44 44 44 45 45 46 47 49 53 54 55 56 56 57 58 57 56 56 55 55 54 54 54 54 55 55 55 56 57
43 42 43 43 43 42 42 42 43 44 45 45 46 49 52 56 56 58 57 56 56 55 55 54 54 54 54 54 55 55 56 56
38 40 42 42 42 41 41 40 40 41 42 42 43 44 47 50 55 57 57 56 55 55 55 54 54 54 54 54 55 54 55 55
35 35 36 39 41 40 39 39 38 38 38 39 40 41 43 43 47 55 57 56 55 54 54 54 53 53 52 53 54 54 53 53
33 33 32 33 36 38 37 36 36 36 36 37 37 39 40 41 42 45 49 56 55 54 54 53 53 53 52 52 52 53 52 51

GFSFLT1_sfc_30mbdewp_126.txt.gz
Dewpoint
24 25 26 25 27 53 61 63 65 66 66 66 65 66 65 66 66 66 65 64 64 63 62 63 63 62 62 61 60 59 59 59
24 25 25 26 24 43 59 62 64 66 66 65 64 64 64 65 65 66 65 65 64 63 62 62 63 62 61 60 59 58 58 60
13 26 28 27 26 28 55 61 63 66 66 65 65 64 64 65 65 65 65 65 64 63 63 62 62 62 60 60 59 57 58 59
7 13 21 28 28 28 45 60 63 65 65 65 64 63 63 63 64 64 64 65 65 64 63 62 62 62 61 60 59 57 56 58
9 10 19 28 35 37 42 58 63 65 65 65 64 63 62 63 63 64 64 64 64 64 63 62 62 62 61 60 59 58 57 56
8 10 16 22 34 44 54 60 63 65 65 64 63 63 63 62 63 62 63 63 63 63 63 62 62 62 62 61 60 59 58 57
6 8 11 32 39 48 52 60 62 64 65 64 63 62 62 61 61 61 61 62 62 63 63 62 62 62 62 61 60 59 58 57
24 29 41 52 54 55 57 59 61 63 63 63 63 62 61 61 61 61 61 61 61 61 62 62 62 62 61 61 60 60 59 58
52 53 54 55 54 54 56 58 61 61 62 62 62 61 61 61 60 60 60 60 60 60 60 61 61 61 61 61 60 60 59 58
51 52 52 53 53 54 55 56 58 60 61 61 61 60 61 60 60 60 59 60 60 61 60 60 60 60 61 60 60 59 59 59
50 50 50 51 51 53 54 56 57 58 59 61 61 61 61 61 60 60 60 60 60 60 60 59 59 59 59 59 59 59 59 59
48 48 49 49 49 50 50 52 53 56 57 58 60 59 59 59 59 60 60 60 60 60 60 59 59 58 58 58 58 58 58 58
46 46 46 46 47 47 47 48 50 52 57 57 58 60 58 57 58 58 59 59 59 59 59 58 58 58 58 58 58 58 58 57
44 44 44 44 44 44 45 45 46 48 52 56 56 57 59 58 58 58 58 58 58 57 56 56 55 55 55 56 56 57 57 57
43 43 42 42 42 42 42 42 43 44 46 48 50 51 56 58 58 58 58 57 56 56 55 55 55 55 55 55 54 55 55 56
42 42 42 41 41 41 40 40 40 41 42 43 44 46 50 55 58 58 57 56 56 55 55 55 54 54 54 54 54 54 54 55
39 40 40 40 39 39 38 38 38 38 39 39 40 42 45 47 50 55 57 56 56 55 54 54 54 54 54 53 54 54 54 54
33 31 33 39 38 37 36 36 37 37 37 37 37 38 40 42 44 48 56 56 55 54 54 54 54 53 53 53 53 54 53 53
33 29 29 33 34 33 33 34 34 35 35 34 35 36 37 38 40 42 45 50 55 54 54 53 53 53 52 52 51 53 52 50

GFSFLT1_sfc_30mbdewp_132.txt.gz
Dewpoint
8 9 8 12 23 30 45 63 64 64 64 64 64 64 63 63 63 63 63 64 63 62 62 61 62 61 60 60 59 58 58 59
11 9 8 6 12 25 41 61 64 64 64 63 62 62 62 63 63 63 63 64 63 63 62 61 62 61 60 60 58 58 57 59
13 10 8 11 16 24 30 57 63 65 64 64 63 63 63 63 63 63 63 64 63 63 62 61 62 61 60 59 58 57 57 59
14 14 11 9 10 18 24 35 61 65 64 64 64 64 64 63 63 63 63 64 63 64 63 62 62 62 60 59 58 57 56 58
14 14 13 8 5 13 25 28 45 63 64 64 63 63 62 63 63 63 63 64 64 64 63 62 62 62 61 60 59 58 57 56
14 13 12 8 6 11 22 27 39 55 63 64 63 62 62 63 63 63 63 64 64 64 63 62 62 62 61 60 59 59 58 57
14 13 11 6 7 19 27 29 39 55 63 64 63 62 62 62 63 63 62 63 64 64 64 63 63 62 62 60 60 59 59 58
43 41 39 7 20 32 40 36 41 55 62 64 63 62 62 62 62 62 62 63 64 64 63 63 62 62 62 61 60 60 59 58
49 48 51 52 52 52 52 52 50 57 63 64 64 63 63 62 62 62 62 63 63 64 63 63 63 62 62 61 61 60 60 59
46 47 48 50 51 54 58 60 61 63 64 64 64 63 63 62 62 62 62 62 62 63 63 62 62 62 62 62 61 60 60 59
44 44 45 46 47 49 52 55 56 59 61 63 63 63 62 62 62 62 62 62 62 62 62 62 62 62 62 61 61 60 60 59
42 41 44 43 43 44 45 48 51 53 57 60 61 61 61 61 61 61 61 61 61 61 61 61 61 61 61 60 60 60 59 59
38 38 41 41 40 40 41 43 45 47 50 53 55 58 60 60 60 60 60 60 60 60 60 60 60 60 60 60 59 59 59 58
36 35 35 37 38 38 39 39 41 43 45 46 48 50 53 57 59 59 59 59 59 60 59 59 59 58 58 58 58 58 58 58
33 33 32 33 35 36 37 37 38 39 40 41 42 44 47 49 56 58 59 59 59 59 59 58 58 58 58 57 58 57 57 58
31 31 32 30 31 33 34 35 36 37 37 37 38 40 42 44 47 51 57 58 58 58 57 57 57 57 57 57 57 56 56 55
30 31 31 29 29 31 32 33 34 34 35 35 36 37 38 40 42 45 48 54 56 56 56 56 56 55 55 54 54 54 54 53
28 29 29 30 29 29 30 31 32 32 32 32 33 35 35 36 38 40 42 45 49 55 55 55 54 54 52 52 52 53 53 53
25 26 27 29 30 29 29 30 30 30 30 30 31 32 33 34 35 36 38 41 44 47 53 54 54 53 52 51 51 52 52 52

GFSFLT1_sfc_30mbdewp_135.txt.gz
Dewpoint
18 19 19 16 18 20 25 35 56 64 64 63 63 63 63 63 63 62 63 63 63 62 62 62 62 61 60 60 62 61 60 61
24 21 22 21 20 21 21 30 45 63 63 62 62 61 62 62 63 63 63 63 63 62 62 62 62 60 60 62 61 60 60 61
38 36 23 23 21 21 23 26 33 60 61 62 62 62 62 62 62 63 63 63 63 63 62 62 62 61 61 60 60 59 58 60
36 39 34 22 23 21 21 22 30 55 61 63 62 62 62 62 62 62 63 63 63 63 63 62 62 62 60 60 61 59 57 58
41 43 43 24 24 23 22 21 26 50 62 63 62 61 60 61 61 62 62 63 63 63 62 63 62 62 61 61 61 60 58 57
43 47 40 23 22 24 24 22 25 38 62 63 62 62 62 62 62 62 62 62 63 63 63 63 63 62 62 61 61 60 59 57
47 46 48 37 23 25 24 23 25 33 60 63 63 62 62 62 62 62 62 62 62 63 63 62 63 62 62 61 61 61 60 59
44 43 44 47 49 24 23 22 23 37 57 62 63 63 63 62 62 62 62 63 62 62 62 62 63 63 63 62 61 61 61 60
41 40 42 43 47 52 32 27 30 43 56 62 63 64 63 63 63 62 62 62 63 63 63 63 63 63 63 62 61 61 61 61
37 37 37 41 42 46 54 53 44 48 56 62 63 64 63 63 63 63 62 62 63 63 63 63 63 63 63 62 61 60 60 60
34 35 35 37 41 42 44 50 53 57 61 63 63 63 63 63 64 63 63 62 62 63 63 62 62 63 62 62 61 61 60 60
33 33 33 34 37 39 40 44 47 49 51 59 63 63 63 63 63 63 63 63 62 62 62 62 62 62 62 61 61 61 60 60
32 32 32 32 34 36 38 39 42 45 47 48 53 56 59 61 61 61 62 61 61 62 61 61 61 61 61 61 60 60 60 59
31 31 30 31 32 33 35 37 38 40 42 43 45 47 49 52 58 61 60 60 60 60 60 60 60 60 60 60 60 60 60 59
30 30 30 31 32 32 32 34 36 37 38 39 40 42 44 46 49 54 59 60 59 60 60 60 60 60 60 60 59 59 59 59
28 28 29 30 31 31 31 32 34 35 35 36 37 39 41 42 44 47 52 58 59 59 59 59 59 58 58 58 58 58 58 58
27 28 28 29 30 30 30 31 31 32 32 33 34 35 37 38 40 43 45 48 55 57 57 57 57 57 56 56 57 57 57 56
25 26 28 29 29 30 29 29 30 30 31 31 31 33 33 34 37 39 40 43 48 50 55 56 56 56 53 53 55 55 55 55
24 24 26 27 29 30 28 28 29 29 29 29 30 31 32 32 34 35 37 40 42 44 44 46 54 45 46 51 52 54 54 53

GFSFLT1_sfc_30mbdewp_141.txt.gz
Dewpoint
29 31 35 39 41 43 45 46 46 44 41 40 48 62 62 61 61 62 65 66 66 64 61 60 60 59 59 61 62 61 61 59
36 38 38 38 40 40 44 45 48 47 38 35 35 54 61 61 61 61 64 66 66 65 62 61 61 60 59 62 61 60 60 59
34 35 36 38 39 41 41 41 44 48 43 34 33 34 59 61 61 61 63 65 66 65 64 62 62 61 61 61 60 59 59 60
33 34 35 37 36 38 38 39 42 45 50 36 33 33 47 60 61 61 62 65 65 65 65 62 63 62 61 62 61 60 58 60
33 34 34 35 35 37 36 38 40 44 48 46 32 27 36 55 61 61 62 64 65 64 64 63 64 62 61 62 62 61 59 59
33 34 34 34 34 36 36 36 38 43 48 50 33 32 35 53 59 60 62 63 64 64 64 64 64 63 62 62 61 62 61 59
33 33 34 33 33 35 35 36 37 41 46 49 37 32 38 53 56 59 60 62 63 63 63 64 64 63 63 63 62 63 61 60
32 32 33 33 32 34 34 35 36 40 48 44 36 36 34 53 56 59 58 61 63 63 63 63 64 64 63 64 63 63 62 61
32 33 33 33 32 33 34 34 36 39 48 34 34 36 34 52 57 58 57 56 59 63 63 63 64 64 64 64 63 63 63 63
32 32 33 33 31 33 34 34 35 38 46 49 33 36 36 52 57 59 55 51 52 63 63 62 62 64 64 63 63 63 63 63
31 32 33 32 31 32 33 34 35 38 43 46 48 35 43 56 58 59 59 58 59 62 63 63 62 62 63 63 62 62 62 63
30 31 32 31 31 31 31 33 34 36 39 43 47 53 56 56 58 58 60 61 61 63 63 63 62 62 62 62 61 61 61 63
30 30 30 31 30 30 31 32 33 35 38 39 43 45 50 52 55 59 59 60 63 64 64 63 62 62 62 62 61 62 62 61
29 30 30 30 31 30 31 32 32 34 36 37 39 41 43 48 50 53 57 62 61 62 62 63 62 62 62 62 62 62 62 62
28 30 29 30 30 30 31 32 32 33 34 34 35 39 40 43 46 49 50 55 61 62 63 63 62 62 62 62 62 62 62 62
27 29 29 29 30 30 31 32 33 33 33 33 33 36 39 40 41 44 48 50 53 59 61 61 61 61 61 61 61 61 61 61
25 27 28 28 28 30 31 31 33 32 33 33 33 33 35 37 38 40 42 45 48 50 51 59 59 49 47 59 61 60 61 60
24 25 26 26 27 28 30 31 31 31 31 32 33 33 33 35 36 37 39 40 42 42 44 45 40 38 38 45 55 60 60 59
22 22 23 24 25 26 27 29 30 29 30 30 32 32 32 33 34 35 37 37 38 38 38 40 39 34 35 38 46 55 59 58